User: anonymous   Login
Location: Guayaquil
(2.1667°S, 79.9000°W)
Time: 01:40:12
(UTC-05:00)
Language:

NEE 01 PEGASUS - Orbit

View from above orbital plane
View from above orbital plane
View from above satellite
View from above satellite

Ground track
Ground track

The orbit data is extracted from the following two-line orbital elements,

1 39151U 13018B   17207.18716171 +.00000119 +00000-0 +22874-4 0  9999
2 39151 097.9841 298.4617 0015735 285.1287 074.8183 14.79733798229305
Epoch (UTC): 26 July 2017 04:29:30
Eccentricity: 0.0015735
inclination: 97.9841°
perigee height: 619 km
apogee height: 641 km
right ascension of ascending node: 298.4617°
argument of perigee: 285.1287°
revolutions per day: 14.79733798
mean anomaly at epoch: 74.8183°
orbit number at epoch: 22930

The dashed part of the orbit path shows where the satellite is in the earth's shadow,  

DLR